www.pogodaiklimat.ru

ПОГОДА в Санфорде, NC

  • Прогноз погоды в Санфорде
  • Монитор погоды в Санфорде
  • Климат в Санфорде

АРХИВ ПОГОДЫ в Санфорде

Время (UTC), дата Ветер
(напр.,м/с)
 
Видим.   Явления Облачность Т
(С)
Тd
(С)
f
(%)
Тe
(С)
Тes
(С)
Комфортность

P
(гПа)

Po
(гПа)
Тmin
(С)
Tmax
(С)
R
(мм)
SD
(см)
04:50 26.03 С  16 км    10/10 210 м  +12.5  +12.3  99  +11  +11      1004.8  +12.1  +13.5  4.3   
05:10 26.03   16 км    10/10 450 м  +12.3  +12.2  99  +12  +12      1004.8         
05:30 26.03 С  16 км    10/10 300 м  +12.3  +12.1  99  +11  +11      1004.8         
05:50 26.03 С  16 км  слабый дождь  10/10 240 м  +11.9  +11.5  97  +9  +9      1004.8         
06:10 26.03 С  16 км  слабая морось  10/10 180 м  +11.5  +11.1  97  +9  +9      1004.8         
06:30 26.03 С  16 км  дождь  10/10 60 м  +11.3  +11.0  98  +9  +9      1004.8         
06:50 26.03 С  16 км  слабый дождь  10/10 60 м  +11.3  +11.0  98  +9  +9      1004.8         
07:10 26.03 С  16 км    10/10 300 м  +11.1  +10.7  97  +9  +9      1005.1         
07:30 26.03 С  4
{7} 
16 км  дождь  10/10 240 м  +11.0  +10.5  97  +8  +8      1005.5         
07:50 26.03 С  7
{9} 
16 км    10/10 240 м  +10.5  +10.0  97  +7  +7      1005.5      0.3   
08:10 26.03 СВ  7
{12} 
16 км  слабый дождь  10/10 240 м  +9.3  +8.1  92  +5  +5      1005.8         
08:30 26.03 СВ  8
{10} 
16 км  слабый дождь  10/10 330 м  +8.3  +7.5  95  +3  +3      1006.5         
08:50 26.03 СВ  8
{11} 
16 км    10/10 300 м  +7.5  +5.8  89  +2  +2      1007.1         
09:10 26.03 СВ  7
{11} 
16 км    10/10 480 м  +7.1  +5.0  86  +2  +2      1007.5         
09:30 26.03 СВ  4
{8} 
16 км    10/8 1320 м
[средняя] 
+7.1  +5.0  86  +3  +3      1007.8         
09:50 26.03 СВ  16 км    10/5 1320 м
[средняя] 
+7.0  +5.0  87  +3  +3      1008.1         
10:10 26.03 СВ  16 км    8/5 630 м
[средняя] 
+7.0  +5.2  88  +3  +3      1008.8         
10:30 26.03 СВ  16 км    8/5 720 м
[средняя] 
+7.1  +5.1  87  +3  +3      1008.8         
10:50 26.03 СВ  16 км    8/8 720 м
[средняя] 
+7.2  +5.0  86  +3  +3      1009.5  +7.0  +12.5  0.3   
11:10 26.03 СВ  4
{7} 
16 км    10/10 780 м  +7.3  +5.0  85  +3  +3      1009.8         
11:30 26.03 СВ  5
{7} 
16 км    8/8 780 м  +7.5  +4.9  84  +3  +3      1010.5         
11:50 26.03 СВ  6
{9} 
16 км    8/8 780 м
[средняя] 
+7.7  +5.0  83  +3  +3      1010.8         
12:10 26.03 СВ  3
{9} 
16 км    5/5 1470 м
[средняя] 
+7.8  +4.8  81  +5  +6      1011.2         
12:30 26.03 СВ  4
{8} 
16 км    8/8 1410 м  +8.4  +5.0  79  +5  +5      1011.5         
12:50 26.03 СВ  5
{8} 
16 км    8/8 720 м  +8.9  +4.9  76  +5  +5      1011.5         
13:10 26.03 СВ  4
{9} 
16 км    5/5 720 м  +9.2  +4.5  72  +6  +8      1011.8         
13:30 26.03 СВ  5
{9} 
16 км    8/8 810 м
[средняя] 
+9.2  +4.8  74  +6  +6      1012.2         
13:50 26.03 СВ  6
{10} 
16 км    10/10 810 м  +9.0  +4.4  73  +5  +5      1012.5         
14:10 26.03 СВ  7
{10} 
16 км    10/10 810 м  +8.9  +4.6  74  +5  +5      1012.8         
14:30 26.03 СВ  4
{8} 
16 км    8/8 690 м  +8.6  +5.1  79  +5  +7      1012.8         
14:50 26.03 СВ  6
{8} 
16 км    10/10 570 м  +8.3  +5.1  80  +4  +4      1013.2         
15:10 26.03 С  16 км    10/10 510 м  +8.2  +4.9  80  +4  +4      1013.2         
15:30 26.03 СВ  5
{9} 
16 км    8/8 570 м  +10.0  +5.1  72  +7  +8      1013.2         
15:50 26.03 С  16 км    10/10 840 м  +9.8  +4.5  70  +6  +6      1012.8         
16:10 26.03 С  7
{10} 
16 км    8/8 930 м  +10.8  +4.2  64  +7  +8      1012.8         
16:20 26.03 С  6
{9} 
16 км    8/8 990 м  +11.2  +4.0  61  +8  +9      1013.2         
16:40 26.03 СВ  4
{9} 
16 км    5/5 1140 м  +11.9  +1.5  49  +10  +15      1012.8         
17:00 26.03 СВ  16 км    ясно  +11.9  +2.2  51  +9  +13      1012.8         
17:20 26.03 С  6
{9} 
16 км    ясно  +12.7  +1.0  45  +10  +14      1012.5         
17:40 26.03 СВ  5
{10} 
16 км    ясно  +12.4  +1.0  46  +10  +16      1012.5         
18:00 26.03 С  6
{8} 
16 км    ясно  +12.8  +1.2  45  +11  +15      1012.2         
18:20 26.03 С  6
{11} 
16 км    ясно  +12.9  +0.8  44  +11  +15      1012.2         
18:40 26.03 С  6
{8} 
16 км    ясно  +13.5  +1.3  43  +11  +15      1012.2         
19:00 26.03 С  7
{9} 
16 км    ясно  +13.1  +0.6  42  +11  +12      1012.2         
19:20 26.03 С  7
{9} 
16 км    ясно  +13.3  +0.1  40  +11  +12      1012.2         
19:40 26.03 С  7
{9} 
16 км    ясно  +13.3  0.0  40  +11  +13      1012.2         
20:00 26.03 С  16 км    ясно  +13.5  +0.1  40  +11  +13      1012.5         
20:20 26.03 СВ  6
{8} 
16 км    ясно  +13.0  -0.7  39  +11  +12      1012.8         

 

Местоположение метеостанции Sanford-Lee County Regional Airport: широта 35.5825 долгота -79.1014 высота над уровнем моря 75 м.

В архиве по умолчанию представлена погода в Санфорде за последние 1-2 суток. Обновление информации о фактической погоде в базе происходит ежечасно! Архивные данные за месяц целиком и за предыдущие месяцы Вы можете получить, выбрав интересующий диапазон дат из раскрывающегося списка и нажав кнопку "Ввод!".

Внимание! Архив погоды МЕТАР в базе сайта хранится не более 60 дней. Нет смысла пытаться выбрать более раннюю дату.

Внимание! Время в таблицах - всемирное. Для получения местного времени необходимо прибавить поправку, которая в Санфорде равна -5 ч.

Ветер - указаны скорость ветра в м/с и направление, откуда дует ветер: С - северный, СВ - северо-восточный, В - восточный, ЮВ - юго-восточный, Ю - южный, ЮЗ - юго-западный, З - западный, СЗ - северо-западный.
Видимость - горизонтальная дальность видимости в метрах или километрах. При видимости от 1 до 10 км при отсутствии осадков обычно наблюдается дымка, при ухудшении видимости до 1 км и менее - туман. В сухую погоду видимость может ухудшаться дымом, пылью или мглою.
Атмосферные явления - указаны явления, наблюдавшиеся в указанный момент времени.
Облачность - указаны через наклонную черту верхняя и нижняя облачность в баллах и высота нижней границы облаков в метрах. Внимание: облачность, как и прочие метеорологические величины в США измеряются автоматическими метеостанциями. Указанные значения в баллах носят условный характер и показывают процент времени, в течение которого, в среднем, лазерный луч высотомера отражался от облаков обратно.
T - Температура воздуха - температура, измеренная на высоте 2 м над землей.
Td - Температура точки росы - температура, при понижении до которой содержащийся в воздухе водяной пар достигнет насыщения.
f - Относительная влажность воздуха - влажноcть воздуха, измеренная на высоте 2 м над землей.
Te - Эффективная температура - температура, которую ощущает одетый по сезону человек в тени. Характеристика душности погоды. При расчете учитывается влияние влажности воздуха и скорости ветра на теплоощущения человека.
Tes - Эффективная температура на солнце - температура, которую ощущает человек, с поправкой на солнечный нагрев. Характеристика знойности погоды. Зависит от высоты солнца над горизонтом, облачности и скорости ветра. Ночью, в пасмурную погоду, а также при ветре 12 м/с и более поправка равна нулю.
P - Атмосферное давление - приведенное к уровню моря атмосферное давление.
Po - Атмосферное давление - измеренное на уровне метеостанции атмосферное давление.
Tmin - Минимальная температура - минимум температуры воздуха на высоте 2 м над землей.
Tmax - Максимальная температура - максимум температуры воздуха на высоте 2 м над землей.
R - Количество осадков - Количество выпавших осадков за 3 или 6 часов, мм.
SD - Снежный покров - Высота снежного покрова, см.